Simultaneous Nadir Overpasses (SNOs) Predictions

Prediction of SNOs between NOAA-19 and TERRA Satellite Orbit:

Table of predicted SNOs for the next 14.0 days since TLE Epoch: 8/24/2024
Index Date (NOAA-19) Time (NOAA-19) Lat,Lon (NOAA-19) SZA (NOAA-19 ) Date (TERRA) Time (TERRA) Lat,Lon (TERRA) SZA (TERRA ) Distance(km) Time Diff (sec)
1 08/24/2024 03:43:16 75.34, 122.14 64.32 08/24/2024 03:44:22 75.33, 122.09 64.31 1.68 66
2 08/24/2024 04:33:59 -76.09, -68.03 114.93 08/24/2024 04:33:28 -76.08, -68.11 114.94 2.45 31
3 08/26/2024 07:33:00 -75.59,-114.44 114.69 08/26/2024 07:33:02 -75.58,-114.43 114.69 0.39 2
4 08/28/2024 10:31:58 -75.20,-160.35 114.32 08/28/2024 10:32:33 -75.20,-160.35 114.32 0.23 35
5 08/28/2024 11:22:38 75.96, 9.46 66.45 08/28/2024 11:21:38 75.96, 9.43 66.44 0.81 60
6 08/30/2024 13:30:55 -74.84, 153.90 113.91 08/30/2024 13:32:03 -74.83, 153.81 113.93 2.97 68
7 08/30/2024 14:21:36 75.54, -36.65 66.78 08/30/2024 14:21:09 75.53, -36.66 66.78 0.55 27
8 09/01/2024 17:20:36 75.00, -83.00 67.03 09/01/2024 17:20:41 75.02, -82.91 67.04 2.97 5
9 09/03/2024 20:19:30 74.73,-128.45 67.54 09/03/2024 20:20:08 74.71,-128.54 67.52 2.90 38
10 09/03/2024 21:10:17 -75.45, 41.02 111.75 09/03/2024 21:09:15 -75.46, 41.05 111.74 1.00 62
11 09/05/2024 23:18:32 74.05,-174.95 67.69 09/05/2024 23:19:41 74.06,-174.93 67.68 0.76 69



Historial Predications of SNOs between NOAA-19 and TERRA
